Погода в Раздолье

Россия / Курская область     51°45′15″N   37°59′24″E
темп.,
°C
ветер,
м/с
пор.,
м/с
влажн.,
%
обл.,
%
осадки,
мм/ч
давл.,
гПа
погр.,
м
5 декабря, вс
вс500:00−3юз118123 0.0 101639
03:00−3всв008070 0.0 101611
06:00−3в227770 0.0 101556
09:00−3юв12755 0.0 101785
12:00−1юв23603 0.0 1016321
15:00−1в225825 0.0 1016106
18:00−2вюв2265100 0.0 101739
21:00−2юв2462100 0.0 101886
6 декабря, пн
пн600:00−2юв2464100 0.0 1019102
03:00−3юв2464100 0.0 102083
06:00−3юв3563100 0.0 1020155
09:00−3юв4961100 0.0 1020287
12:00−1юв4757100 0.0 1020364
15:000юв366869 0.0 1020357
18:00−1юв488287 0.0 1020249
21:00−2юв51092100 0.0 1020275
7 декабря, вт
вт700:00−1юв51192100 0.0 1019335
03:000юв71396100 1.6 1018390
06:00+1ююв81797100 1.3 1016468
09:00+2ююв81598100 5.8 1015371
12:00+4ю71597100 1.0 1014460
15:00+4ю71897100 2.7 1013467
18:00+4ю51298100 1.1 1013243
21:00+3ююв61492100 1.4 1013278
8 декабря, ср
ср800:00+3ююв6159296 0.0 1013307
03:00+3ююв51394100 0.0 1012287
06:00+2ююв41094100 0.0 1012228
09:00+2юв4995100 0.0 1013211
12:00+3юв4993100 0.0 1012322
15:00+3вюв4993100 0.0 1011309
18:00+3вюв41094100 0.0 1011268
21:00+3юв4995100 0.0 1012307
9 декабря, чт
чт900:00+2вюв4896100 0.0 1012184
03:00+2юв3897100 0.0 1012186
06:00+2вюв3497100 0.0 101287
09:00+3вюв4897100 0.4 1012186
12:00+4юв3797100 0.9 1012145
15:00+4юв3794100 0.9 1012214
18:00+4вюв3596100 0.1 1013128
21:00+4ююв2298100 0.4 101358